BEIJING 1 1 28890U 05043A 26118.99329038 .00000165 00000+0 41205-4 0 9997 2 28890 98.2825 251.9526 0015886 76.6044 283.6927 14.63501749 93456 HUANJING 1A (HJ-1A) 1 33320U 08041A 26118.94227521 .00001544 00000+0 19172-3 0 9990 2 33320 97.6667 106.6951 0017718 303.8008 56.1519 14.83875424951107 HUANJING 1B (HJ-1B) 1 33321U 08041B 26118.95707163 .00001025 00000+0 13042-3 0 9991 2 33321 97.6508 110.0276 0036240 347.7469 12.2860 14.83228202951119 YAOGAN-4 1 33446U 08061A 26118.78253590 .00001070 00000+0 13774-3 0 9994 2 33446 97.9291 52.6669 0013112 228.1283 131.8813 14.83105823938344 DEIMOS-1 1 35681U 09041A 26118.94307656 .00000823 00000+0 12882-3 0 9991 2 35681 97.7343 278.3216 0001847 44.1207 316.0150 14.75185422899624 UK-DMC 2 1 35683U 09041C 26118.94076622 .00001178 00000+0 17844-3 0 9996 2 35683 97.8749 255.1343 0001721 87.4705 272.6702 14.75950631899302 DMC3-FM1 1 40715U 15032A 26118.90558793 .00000361 00000+0 47607-4 0 9999 2 40715 97.6537 345.9970 0004626 202.5982 157.5031 14.85680384582597 DMC3-FM2 1 40716U 15032B 26118.92780419 .00001161 00000+0 13983-3 0 9992 2 40716 97.6592 347.5584 0005006 209.3108 150.7827 14.85687871582592 DMC3-FM3 1 40717U 15032C 26118.88354091 .00000796 00000+0 97684-4 0 9995 2 40717 97.6645 349.2372 0004223 206.8475 153.2522 14.85687394582595